Flag for U.S.A. Weather past 2 weeks in Owensboro, Kentucky, U.S.A.

Now
76 °F

Clear.


Feels Like: 75 °F
Forecast: 78 / 94 °F
Wind: 5 mph from West

Location: Owensboro / Daviess

Current Time: Jul 29, 2015 at 12:24:18 AM

Latest Report: Jul 28, 2015 at 9:56 PM


Visibility: 10 mi

Pressure: 29.98 "Hg

Humidity: 96%

Dew point: 75 °F

Location of OwensboroLocation

Historic Weather in Owensboro — Graph

°F

Owensboro temperature yesterday

Maximum temperature yesterday: 94 °F (at 3:56 PM)
Minimum temperature yesterday: 73 °F (at 4:56 AM)
Average temperature yesterday: 83 °F

Past Weeks' High & Low Weather Summary

 TemperatureHumidityPressure
High94 °F (Jul 14, 1:56 PM)100% (Jul 20, 5:56 AM)30.03 "Hg (Jul 20, 5:56 AM)
Low67 °F (Jul 23, 5:56 AM)46% (Jul 24, 3:56 PM)29.63 "Hg (Jul 14, 4:56 PM)
Average81 °F76%29.91 "Hg
* Reported Jul 13 9:56 PM — Jul 28 9:56 PM, Owensboro, Weather by CustomWeather, © 2015

Note: Actual official high and low records may vary slightly from our data, if they occured in-between our weather recording intervals... More about our weather records

Advertising

Owensboro weather history for previous 24 hours

 ConditionsComfort  
Time TempWeatherWind HumidityBarometerVisibility
9:56 PM
Tue, Jul 28
76 °FClear.5 mph96%29.98 "Hg10 mi
8:56 PM77 °FClear.5 mph93%29.97 "Hg10 mi
7:56 PM78 °FPassing clouds.6 mph94%29.93 "Hg10 mi
6:56 PM83 °FThunderstorms. Partly sunny.20 mph79%29.95 "Hg7 mi
5:56 PM90 °FScattered clouds.10 mph75%29.92 "Hg7 mi
4:56 PM92 °FPassing clouds.No wind64%29.90 "Hg10 mi
3:56 PM94 °FScattered clouds.3 mph64%29.93 "Hg10 mi
2:56 PM91 °FScattered clouds.No wind68%29.94 "Hg10 mi
1:56 PM92 °FPassing clouds.7 mph66%29.94 "Hg10 mi
12:56 PM92 °FPassing clouds.7 mph64%29.97 "Hg10 mi
11:56 AM91 °FPassing clouds.3 mph64%29.98 "Hg10 mi
10:56 AM90 °FSunny.6 mph66%29.97 "Hg10 mi
9:56 AM87 °FSunny.5 mph70%29.97 "Hg10 mi
8:56 AM84 °FSunny.No wind74%29.98 "Hg7 mi
7:56 AM80 °FSunny.No wind79%29.96 "Hg7 mi
6:56 AM76 °FFog.No wind90%29.96 "Hg5 mi
5:56 AM73 °FFog.6 mph97%29.96 "Hg5 mi
4:56 AM73 °FClear.6 mph97%29.94 "Hg8 mi
3:56 AM74 °FClear.No wind94%29.95 "Hg10 mi
2:56 AM75 °FClear.No wind94%29.93 "Hg10 mi
1:56 AM76 °FClear.No wind90%29.93 "Hg10 mi
12:56 AM76 °FClear.6 mph90%29.95 "Hg10 mi
Weather by CustomWeather, © 2015

See weather overviewHow to use our weather pages